Home   Weather   Ansbach   Past weeks

Flag for Germany Past Weather in Ansbach, Bavaria, Germany — Yesterday and Last 2 Weeks

Now
66 °F

Passing clouds.


Feels Like: 66 °F
Forecast: 59 / 73 °F
Wind: 6 mph from South

Location: Ansbach / Katterbach

Current Time: Jul 23, 2017 at 1:02:59 am

Latest Report: Jul 22, 2017 at 11:58 pm


Visibility: N/A

Pressure: 29.95 "Hg

Humidity: 73%

Dew Point: 57 °F

Location of AnsbachLocation

Past Weather in Ansbach — Graph

°F

Ansbach Temperature Yesterday

Maximum temperature yesterday: 79 °F (at 2:58 pm)
Minimum temperature yesterday: 60 °F (at 5:58 am)
Average temperature yesterday: 70 °F

High & Low Weather Summary for the Past Weeks

 TemperatureHumidityPressure
High88 °F (Jul 19, 6:58 pm)94% (Jul 8, 3:58 am)30.31 "Hg (Jul 8, 3:58 am)
Low46 °F (Jul 13, 5:58 am)35% (Jul 19, 6:58 pm)29.80 "Hg (Jul 10, 1:58 am)
Average67 °F70%30.02 "Hg
* Reported Jul 7 11:58 pm — Jul 22 11:58 pm, Ansbach. Weather by CustomWeather, © 2017

Note: Actual official high and low records may vary slightly from our data, if they occured in-between our weather recording intervals... More about our weather records

Advertising

Ansbach Weather History for the Previous 24 Hours

Scroll right to see more
 ConditionsComfort  
Time TempWeatherWind HumidityBarometerVisibility
11:58 pm
Sat, Jul 22
66 °FPassing clouds.6 mph73%29.95 "HgN/A
10:58 pm69 °FClear.3 mph68%29.95 "HgN/A
9:58 pm70 °FClear.6 mph69%29.96 "HgN/A
8:58 pm74 °FSunny.5 mph57%29.95 "HgN/A
7:58 pm77 °FSunny.6 mph47%29.93 "HgN/A
6:58 pm77 °FSunny.7 mph54%29.95 "HgN/A
5:58 pm79 °FScattered clouds.5 mph51%29.95 "HgN/A
5:36 pm77 °FScattered clouds.6 mph57%29.95 "HgN/A
4:58 pm79 °FPartly sunny.8 mph48%29.95 "HgN/A
4:43 pm79 °FLight rain. Scattered clouds.8 mph48%29.95 "HgN/A
3:58 pm79 °FPartly sunny.No wind48%29.96 "HgN/A
2:58 pm79 °FPassing clouds.5 mph48%29.96 "HgN/A
1:58 pm76 °FSunny.3 mph55%29.98 "HgN/A
12:58 pm75 °FScattered clouds.6 mph57%29.98 "HgN/A
11:58 am74 °FPassing clouds.8 mph60%29.97 "HgN/A
10:58 am72 °FPassing clouds.3 mph65%29.97 "HgN/A
10:04 am68 °FScattered clouds.5 mph78%29.96 "HgN/A
9:58 am68 °FScattered clouds.5 mph77%29.98 "HgN/A
8:58 am64 °FPassing clouds.9 mph85%29.97 "HgN/A
8:27 am64 °FScattered clouds.5 mph83%29.96 "HgN/A
8:04 am66 °FPartly sunny.8 mph78%29.96 "HgN/A
7:58 am64 °FPassing clouds.7 mph88%29.95 "HgN/A
6:58 am61 °FPassing clouds.6 mph94%29.93 "HgN/A
5:58 am60 °FSunny.3 mph94%29.93 "HgN/A
4:58 am61 °FClear.3 mph94%29.91 "HgN/A
4:25 am63 °FClear.3 mph88%29.91 "HgN/A
4:12 am63 °FPassing clouds.3 mph88%29.91 "HgN/A
3:58 am62 °FPassing clouds.No wind87%29.90 "HgN/A
3:10 am64 °FPassing clouds.7 mph78%29.90 "HgN/A
2:58 am65 °FPartly cloudy.6 mph76%29.90 "HgN/A
1:58 am66 °FPassing clouds.10 mph73%29.90 "HgN/A
Weather by CustomWeather, © 2017

See weather overviewHow to use our weather pages